Regional Weather Roundup
Issued by NWS

Home | Current Version | Previous Version | Graphics & Text | Print | Product List | Glossary On
Versions: 1 2 3 4 5 6 7 8 9 10 11 12 13 14 15 16 17 18 19 20 21 22 23 24 25 26 27
000
ASUS45 KSLC 280810
RWRUT

UTAH REGIONAL WEATHER ROUNDUP
NATIONAL WEATHER SERVICE SALT LAKE CITY UT
200 AM MDT SAT MAY 28 2016

UTZ001>011-023>025-280900-

NORTHERN UTAH

CITY           SKY/WX    TMP DP  RH WIND       PRES   REMARKS
BRIGHAM CITY     N/A     51  45  79 CALM      29.99R
HILL AFB       CLEAR     51  44  76 N3        29.99R
LOGAN          MOCLDY    50  47  89 NE3       29.99R
OGDEN          PTCLDY    50  45  83 CALM      29.98R
PROVO AIRPORT  MOCLDY    52  37  58 S8        29.99R
SALT LAKE CITY MOCLDY    57  45  64 SW3       29.97R
VERNAL         PTCLDY    46  35  65 W6        30.01R
WENDOVER       CLEAR     55  39  54 S3        29.99R
HEBER CITY     PTCLDY    43  37  81 CALM      30.02S
WEST JORDAN    CLOUDY    52  45  76 CALM      29.98S

$$

UTZ012>022-026-027-280900-

SOUTHERN/CENTRAL UTAH

CITY           SKY/WX    TMP DP  RH WIND       PRES   REMARKS
BLANDING       PTCLDY    45  32  61 NE5       30.08R
BRYCE CANYON   CLEAR     35  29  78 W9        30.12R WCI  28
CEDAR CITY     CLEAR     44  31  60 CALM      29.98R
DELTA          PTCLDY    50  41  71 NE3       29.97R
HANKSVILLE     PTCLDY    46  32  57 CALM      29.98R
MILFORD        CLEAR     51  33  50 W5        29.95R
MOAB/CYNLANDS  CLEAR     56  37  49 SE7       29.95R
PRICE          PTCLDY    47  29  49 N7        30.02R
ST GEORGE      MOSUNNY   66  30  26 CALM      29.87S
KANAB          CLEAR     52  34  50 NE5       30.02R

$$

REGIONAL REPORTS     COLORADO/ARIZONA

CITY           SKY/WX    TMP DP  RH WIND       PRES   REMARKS
CRAIG, CO      CLOUDY    43  39  86 N5        30.06R
GRAND JUNCTION CLEAR     48  42  80 NE6       30.00R
RIFLE          CLEAR     42  36  79 CALM      30.05R
MONTROSE       CLEAR     46  34  62 SE9       30.06S
CORTEZ         PTCLDY    42  32  67 E5        30.03R
PAGE, AZ       CLEAR     64  32  30 S3        29.93S
GRAND CANYON   CLEAR     36  23  59 CALM      30.08S
KINGMAN        CLEAR     66  28  24 S10       29.90S
FLAGSTAFF      CLEAR     38  28  67 CALM      30.11R

$$

REGIONAL REPORTS    NEVADA/IDAHO/WYOMING

CITY           SKY/WX    TMP DP  RH WIND       PRES   REMARKS
LAS VEGAS, NV  CLEAR     76  25  15 S5        29.75S
ELY            MOCLDY    43  32  65 S10       30.03R
ELKO           CLEAR     47  35  63 E3        30.01R
POCATELLO, ID  CLEAR     48  28  46 S10       29.99R
BURLEY         CLEAR     45  31  58 S12       29.98R
EVANSTON, WY   CLOUDY    42  33  70 SW8       30.05S
ROCK SPRINGS   CLEAR     44  35  70 SW10      30.02S
KEMMERER         N/A     41  34  75 NW3       30.06R

$$




USA.gov is the U.S. government's official web portal to all federal, state and local government web resources and services.